Orbital Elements at Epoch 2459000.5 (2020-May-31.0) TDB
Reference: JPL 18 (heliocentric ecliptic J2000)
Element | Value | Uncertainty (1-sigma) | Units |
e | .0875162984648986 | 3.9806e-08 | |
a | 3.082178573556251 | 2.7555e-08 | au |
q | 2.812437713590787 | 1.338e-07 | au |
i | 11.5591560570878 | 6.3719e-06 | deg |
node | 75.80941685686643 | 3.0369e-05 | deg |
peri | 45.43459220222187 | 6.7508e-05 | deg |
M | 333.5723265639162 | 5.7741e-05 | deg |
tp | 2459145.591360580427 (2020-Oct-23.09136058) | 0.00031734 | TDB |
period | 1976.44677028724 5.41 | 2.6504e-05 7.256e-08 | d yr |
n | .1821450521268936 | 2.4426e-09 | deg/d |
Q | 3.351919433521715 | 2.9966e-08 | au |
|
| | Orbit Determination Parameters
Additional Information
|